SCP
0 0 0 0 0 0 0 0 0 0 0 0 0 0 0 0 0 0 0 0 0 0 0 0 0 0 0 0 0 0 0 0 0 0 0 0 0 0 0 0 0 0 -0 -0
0 0 0 0 0 0 0 0 0 0 0 0 0 0 0 0 0 -0 -0 0 0 0 0 0 0 0 0 0 0 0 0 0 0 0 0 0 0 0 0 0 0 0 0 -0
0 0 0 0 0 0 0 0 0 0 0 0 0 0 0 0 0 0 0 0 0 0 0 0 0 0 0 0 0 0 0 0 0 0 0 0 0 0 0 0 0 0 0 0
0 0 0 0 0 0 0 0 0 0 0 0 0 0 0 0 0 0 0 0 0 0 0 0 0 0 0 0 0 0 0 0 0 0 0 0 0 0 0 0 0 0 0 0
0 0 0 0 0 0 0 0 0 0 0 0 0 0 0 0 0 0 0 -0 0 0 0 0 0 0 0 0 0 0 0 0 0 0 0 0 0 0 0 0 0 0 0 0
0 0 0 0 0 0 0 0 0 0 0 0 0 0 0 0 0 0 0 0 0 0 -0 0 0 0 0 0 0 0 0 0 0 0 0 0 0 0 0 0 -0 0 0 0
0 0 0 0 0 0 0 0 0 0 0 0 0 0 0 0 0 0 -0 -0 0 -0 -0 -0 0 0 0 0 0 0 0 0 0 0 0 0 0 0 0 0 0 0 0 0
0 0 0 0 0 0 0 0 0 0 0 0 0 0 -0 0 0 0 0 0 -0 -0 -0 -0 -0 -0 0 0 0 0 0 0 0 0 0 0 0 0 0 0 0 0 0 0
0 0 0 0 0 0 0 0 0 0 0 0 0 0 0 0 0 0 0 0 -0 -0 -0 -0 -0 -0 -0 0 0 -0 0 0 0 0 0 0 0 0 0 0 0 0 0 0
0 0 0 0 0 0 0 0 0 0 0 0 0 0 0 0 0 0 0 0 -0 -0 -0 -0 -0 -0 -0 -0 0 0 0 0 0 0 0 0 0 0 0 0 0 0 0 0
0 0 0 0 0 0 0 0 0 0 0 0 0 -0 -0 0 -0 -0 0 0 -0 -0 -0 -0 -0 -0 -0 -0 0 0 0 0 0 0 0 0 0 0 0 0 0 0 0 0
0 0 0 0 0 0 0 0 0 0 0 0 0 0 0 -0 -0 -0 0 -0 0 -0 -0 -0 -0 -0 -0 -0 -0 -0 0 0 0 0 0 0 0 0 0 0 0 0 0 0
0 0 0 0 0 0 0 0 0 0 0 0 0 0 0 0 -0 -0 0 0 -0 -0 -0 -0 -0 -0 -0 -0 -0 -0 -0 0 0 0 0 0 0 0 0 0 0 0 0 0
0 0 0 0 0 0 0 0 0 0 0 0 0 0 0 0 -0 -0 -0 0 -0 -0 -0 -0 -0 -0 -0 -0 0 0 -0 0 0 0 0 0 0 0 0 0 0 0 0 0
0 0 0 0 0 0 0 0 0 0 0 0 0 0 0 -0 0 -0 -0 0 0 -0 -0 -0 -0 -0 0 0 0 0 -0 -0 0 0 0 0 0 0 0 0 0 0 0 0
0 0 0 0 0 0 0 0 0 0 0 0 0 0 0 0 0 0 0 0 0 -0 -0 -0 -0 -0 -0 -0 0 0 -0 -0 0 0 0 0 0 0 0 -0 0 0 0 0
0 0 0 0 0 0 -0 0 0 0 0 0 0 0 0 0 0 0 0 0 0 0 0 0 -0 -0 -0 -0 0 0 -0 -0 -0 0 0 0 0 0 0 0 0 0 0 0
0 0 0 0 0 0 0 0 0 0 0 0 0 0 0 0 -0 0 0 0 0 0 0 0 0 0 -0 0 0 -0 0 -0 -0 0 0 0 0 0 0 0 0 0 0 0
0 0 0 0 0 0 0 0 0 0 0 0 0 0 0 0 0 0 0 0 0 0 0 0 0 0 0 0 0 0 0 0 0 0 0 0 0 0 0 0 0 0 0 0
0 0 0 0 0 0 0 0 0 0 0 0 0 0 0 0 0 -0 0 0 0 0 0 0 0 0 0 0 0 0 0 0 0 0 0 0 0 0 0 0 0 -0 -0 -0
0 0 0 0 0 0 0 0 0 0 0 0 0 0 0 0 0 0 0 0 0 0 0 0 0 0 0 0 0 0 0 -0 0 0 0 0 0 -0 -0 -0 -0 -0 0 -0
0 0 0 0 0 0 0 0 0 0 0 0 0 0 0 0 0 0 0 0 0 0 0 0 0 0 0 0 0 0 0 0 0 0 0 0 0 -0 -0 0 -0 -0 0 0
0 0 0 0 0 0 0 0 0 0 0 0 0 0 0 0 0 0 0 0 0 0 0 0 0 0 0 0 0 0 0 0 0 0 0 0 0 0 0 0 -0 -0 -0 -0
0 0 0 0 0 0 0 0 0 0 0 0 0 0 0 0 0 0 0 0 0 0 0 0 0 0 0 0 0 0 0 0 0 0 0 0 0 0 0 0 0 0 0 -0
0 0 0 0 0 0 0 0 0 0 0 0 0 0 0 0 0 0 0 0 0 0 0 0 0 0 0 0 0 0 0 0 0 0 0 0 0 0 0 0 0 0 0 0
0 0 0 0 0 0 0 -0 0 0 0 0 0 0 0 0 0 0 0 0 0 0 0 0 0 0 0 0 0 0 0 0 0 0 0 0 0 0 0 0 0 0 0 0
Wind_Speed_500mb
15 8 15 18 13 10 8 5 10 8 10 9 14 19 31 22 39 30 47 50 44 34 22 13 6 2 12 19 15 26 27 33 33 23 21 19 15 15 10 9 8 11 8 12
8 23 14 14 8 8 6 6 10 11 5 11 16 20 17 15 26 53 58 57 50 40 30 20 12 3 6 18 11 20 20 27 35 25 20 22 23 18 12 18 21 23 21 28
17 8 15 14 10 9 10 7 9 14 3 6 3 13 11 10 13 25 42 54 54 47 35 26 18 7 1 14 12 15 18 24 27 23 20 25 26 24 17 22 22 25 32 32
14 12 16 10 9 15 8 15 11 9 4 9 7 11 13 10 12 14 39 58 59 51 37 27 22 13 4 10 12 12 18 21 21 25 24 30 33 35 28 26 34 35 36 40
20 16 12 11 19 14 19 7 11 7 8 4 5 4 13 5 13 21 34 59 63 57 44 33 26 15 7 10 10 5 14 17 15 25 30 33 29 29 28 24 16 22 28 29
21 19 20 24 16 18 7 6 11 8 7 2 14 13 10 9 16 13 10 54 68 62 49 33 24 20 12 12 7 3 9 13 11 16 24 27 30 30 30 29 19 7 23 23
8 11 8 12 10 6 9 11 7 8 5 11 6 7 17 17 19 17 17 51 71 65 55 42 39 30 21 13 10 3 3 8 9 11 17 24 24 24 22 20 20 12 16 27
19 18 20 8 17 19 14 17 11 12 5 11 6 10 12 12 15 26 25 39 66 68 59 47 38 33 25 16 13 10 2 2 5 8 14 20 17 19 25 27 25 26 34 35
17 17 5 14 10 21 11 9 12 9 2 4 7 13 20 6 10 12 20 41 63 72 63 50 41 36 29 24 12 10 9 3 4 3 6 12 11 12 17 23 26 29 38 29
13 6 11 14 10 1 17 13 4 4 4 8 8 8 11 15 10 9 12 36 61 70 63 51 43 39 33 27 16 13 12 6 8 4 1 7 9 11 12 15 22 29 30 28
12 12 8 12 14 18 6 6 9 9 9 10 5 12 12 9 17 15 19 46 64 76 68 55 46 39 35 29 24 18 13 8 8 10 5 2 7 11 13 13 17 20 21 23
15 13 12 16 5 9 15 21 18 10 9 5 8 15 10 12 17 15 15 38 54 70 65 54 48 42 40 34 30 20 17 12 6 9 9 7 6 8 16 16 16 16 20 24
16 6 6 10 7 3 9 9 9 10 8 14 11 12 8 7 6 4 18 31 48 63 65 56 51 50 45 39 32 23 17 17 11 8 8 8 10 11 16 19 17 20 22 24
36 12 20 32 13 12 9 9 12 14 9 11 12 9 10 6 7 4 10 24 40 63 70 62 56 55 51 42 37 28 19 24 18 12 7 5 9 16 18 25 20 20 21 21
13 16 12 9 19 21 27 17 24 19 18 17 16 18 15 9 9 7 17 26 41 56 70 72 63 59 57 48 41 32 23 23 23 18 11 4 7 19 24 24 23 22 20 18
4 7 16 14 19 25 23 35 32 35 6 2 11 10 14 14 16 12 15 38 50 58 75 80 71 59 60 58 47 38 31 26 26 22 16 11 9 17 27 27 26 22 23 20
2 7 7 9 11 13 34 32 28 20 10 19 17 19 14 11 16 28 30 36 49 58 64 85 82 70 62 62 53 46 36 29 27 24 23 18 13 18 24 29 28 25 23 22
3 7 4 6 11 18 10 21 33 39 24 15 7 16 21 26 40 32 21 19 41 54 54 75 87 75 65 59 56 47 41 34 29 26 27 24 18 21 24 27 29 29 27 24
16 9 5 10 8 9 3 10 18 18 25 29 26 10 18 20 12 30 25 29 37 51 49 56 81 84 71 64 60 56 51 42 34 31 30 27 22 23 24 26 27 28 29 27
11 9 10 6 13 21 11 12 12 11 16 20 34 19 18 27 7 19 41 38 44 42 55 43 61 83 79 69 66 63 59 54 46 38 32 29 26 25 25 25 25 25 25 24
9 5 25 4 9 12 10 17 33 17 15 24 55 50 37 15 44 52 41 40 32 37 50 52 49 62 77 78 74 73 66 65 55 44 36 34 33 30 27 27 28 27 26 26
16 15 11 4 7 17 14 14 24 15 20 25 54 54 63 72 60 55 43 32 26 27 38 49 44 53 65 80 81 82 77 62 62 55 47 42 38 35 35 36 34 32 31 29
19 13 15 19 12 7 54 39 60 42 34 31 50 54 61 59 60 46 47 45 34 31 33 35 39 45 58 66 86 90 78 69 66 65 59 53 46 44 42 44 43 41 39 37
6 6 9 8 11 12 50 30 49 34 34 35 26 29 40 46 48 49 49 39 35 30 24 32 47 52 60 62 75 93 81 77 69 72 69 63 59 55 51 50 51 50 49 47
13 15 13 5 4 3 23 62 46 55 31 30 31 24 31 39 41 39 34 36 37 32 29 35 41 46 54 60 68 83 93 85 84 73 75 73 70 65 60 58 57 60 56 52
8 11 16 16 22 22 30 66 65 51 64 46 28 29 41 37 30 27 31 36 33 24 25 33 47 51 51 58 72 79 85 93 93 88 81 83 80 78 74 68 64 61 57 52
Wind_Direction_500mb
167 142 203 202 199 183 195 196 247 266 242 178 235 252 273 220 213 207 206 201 203 206 203 200 201 8 28 21 15 10 20 23 18 16 25 45 36 18 343 14 27 349 223 188
83 219 188 197 164 173 160 222 264 274 278 163 271 271 263 189 224 214 211 204 205 198 196 201 200 217 27 28 27 11 20 18 23 25 36 44 25 34 29 52 67 55 90 146
185 182 163 169 196 174 198 174 233 239 319 239 151 307 301 268 242 221 226 215 210 204 200 199 200 206 76 39 40 25 32 19 27 32 45 53 36 52 62 72 76 69 96 94
208 191 172 168 196 166 254 217 229 267 47 271 133 271 286 284 278 228 215 210 208 201 202 202 197 201 166 62 48 45 37 22 40 40 50 71 50 59 76 89 79 80 78 82
213 155 176 173 211 163 232 143 196 228 205 109 270 72 262 352 284 259 218 210 206 201 198 199 195 191 148 109 56 86 35 33 59 56 55 59 66 61 66 84 80 75 75 87
202 206 166 197 213 175 166 107 49 55 97 60 235 160 278 221 217 260 193 206 206 196 195 197 183 186 161 160 93 133 34 27 57 61 55 55 55 60 74 81 104 109 105 94
168 186 191 151 152 89 96 71 338 338 6 223 108 101 235 255 244 231 230 199 201 192 192 191 187 190 184 171 174 154 9 15 49 65 67 61 60 59 72 73 80 146 112 136
180 227 170 178 170 183 181 155 158 230 231 260 139 231 250 229 306 295 273 218 194 187 192 194 190 190 189 175 169 211 224 34 49 67 68 59 70 66 66 63 77 100 128 123
174 227 138 166 156 148 177 153 197 138 154 62 243 287 311 268 7 22 132 172 185 186 191 194 190 193 193 186 166 213 231 310 189 61 32 42 78 91 77 76 68 86 123 125
194 182 207 199 100 19 166 160 112 18 194 228 278 286 240 300 304 174 162 178 186 187 191 195 192 194 196 194 192 225 237 274 215 221 79 46 99 132 106 94 96 95 93 101
134 135 269 110 178 169 124 162 58 124 148 187 235 257 218 224 251 233 196 198 192 188 192 195 191 193 199 201 204 225 235 251 213 218 214 116 119 142 140 122 116 110 114 114
185 152 193 199 198 172 208 189 171 163 229 208 185 261 242 262 272 215 200 212 201 198 192 194 192 190 198 202 197 209 219 226 198 189 193 204 178 150 164 145 134 117 115 110
170 199 149 328 5 329 168 178 148 120 95 189 186 261 177 256 270 218 204 203 203 199 198 195 194 195 199 200 198 196 212 206 201 185 175 188 193 174 168 164 148 146 134 144
160 158 189 221 209 158 183 179 183 156 141 185 217 211 260 185 58 293 175 212 207 202 201 196 197 202 203 203 203 199 203 205 205 205 204 194 193 185 175 180 171 159 158 147
142 205 182 198 202 191 212 196 180 191 195 175 215 208 229 180 179 209 185 186 192 201 208 202 200 206 205 204 204 203 198 204 212 211 217 222 208 190 184 181 182 173 160 155
7 222 175 217 207 195 215 217 194 208 152 107 155 231 207 178 174 226 187 188 199 203 210 211 206 205 206 207 205 203 200 200 211 212 211 217 216 189 186 185 185 182 181 174
335 136 103 227 182 127 245 208 193 204 190 171 198 214 155 179 195 222 235 217 220 214 210 216 209 208 207 204 203 204 199 199 208 205 208 217 212 190 184 191 195 195 195 193
216 108 104 158 112 208 278 203 187 199 204 194 179 178 181 204 225 242 231 270 236 225 214 218 219 213 212 208 204 204 201 202 202 203 206 213 211 194 188 188 191 197 203 205
180 138 168 152 211 299 234 153 145 159 227 198 205 154 191 205 230 254 235 268 278 246 230 226 222 218 212 207 202 202 202 203 202 203 203 210 216 203 195 190 191 193 197 200
141 198 170 175 178 219 191 199 150 76 246 196 197 192 165 143 188 234 228 253 278 248 237 225 224 223 215 212 205 202 203 203 203 201 201 203 210 211 200 189 183 179 178 176
145 135 209 174 228 275 248 149 137 154 233 185 192 203 174 185 220 233 247 262 270 256 241 230 224 223 220 210 207 205 204 206 206 196 199 203 205 206 199 190 184 177 175 176
162 151 190 123 190 245 170 133 161 197 217 215 204 206 202 217 228 230 238 242 254 244 224 224 223 224 220 212 209 209 207 207 207 202 200 204 204 202 199 195 188 186 188 187
193 184 186 189 203 227 172 174 198 186 195 196 207 208 215 220 224 223 240 237 246 214 209 218 230 222 218 211 211 211 211 207 206 206 203 207 205 204 201 201 197 197 197 196
238 157 152 130 207 202 192 200 204 192 192 213 219 210 211 224 232 233 239 236 219 216 197 222 218 219 219 216 212 217 213 207 207 207 205 207 212 209 207 207 206 206 206 207
202 152 174 228 314 91 219 202 203 208 201 192 189 207 232 226 227 231 238 227 229 239 231 223 225 226 225 225 219 214 217 211 209 210 209 207 211 214 213 214 215 215 217 219
213 176 184 221 175 168 203 203 207 210 215 211 219 215 215 219 230 238 245 243 243 240 251 248 234 227 225 227 223 217 218 215 213 211 212 212 210 213 218 217 220 224 229 233
Wind_Speed_850mb
15 8 15 18 13 10 8 5 10 8 10 9 14 19 31 22 39 30 47 50 44 34 22 13 6 2 12 19 15 26 27 33 33 23 21 19 15 15 10 9 8 11 8 12
8 23 14 14 8 8 6 6 10 11 5 11 16 20 17 15 26 53 58 57 50 40 30 20 12 3 6 18 11 20 20 27 35 25 20 22 23 18 12 18 21 23 21 28
17 8 15 14 10 9 10 7 9 14 3 6 3 13 11 10 13 25 42 54 54 47 35 26 18 7 1 14 12 15 18 24 27 23 20 25 26 24 17 22 22 25 32 32
14 12 16 10 9 15 8 15 11 9 4 9 7 11 13 10 12 14 39 58 59 51 37 27 22 13 4 10 12 12 18 21 21 25 24 30 33 35 28 26 34 35 36 40
20 16 12 11 19 14 19 7 11 7 8 4 5 4 13 5 13 21 34 59 63 57 44 33 26 15 7 10 10 5 14 17 15 25 30 33 29 29 28 24 16 22 28 29
21 19 20 24 16 18 7 6 11 8 7 2 14 13 10 9 16 13 10 54 68 62 49 33 24 20 12 12 7 3 9 13 11 16 24 27 30 30 30 29 19 7 23 23
8 11 8 12 10 6 9 11 7 8 5 11 6 7 17 17 19 17 17 51 71 65 55 42 39 30 21 13 10 3 3 8 9 11 17 24 24 24 22 20 20 12 16 27
19 18 20 8 17 19 14 17 11 12 5 11 6 10 12 12 15 26 25 39 66 68 59 47 38 33 25 16 13 10 2 2 5 8 14 20 17 19 25 27 25 26 34 35
17 17 5 14 10 21 11 9 12 9 2 4 7 13 20 6 10 12 20 41 63 72 63 50 41 36 29 24 12 10 9 3 4 3 6 12 11 12 17 23 26 29 38 29
13 6 11 14 10 1 17 13 4 4 4 8 8 8 11 15 10 9 12 36 61 70 63 51 43 39 33 27 16 13 12 6 8 4 1 7 9 11 12 15 22 29 30 28
12 12 8 12 14 18 6 6 9 9 9 10 5 12 12 9 17 15 19 46 64 76 68 55 46 39 35 29 24 18 13 8 8 10 5 2 7 11 13 13 17 20 21 23
15 13 12 16 5 9 15 21 18 10 9 5 8 15 10 12 17 15 15 38 54 70 65 54 48 42 40 34 30 20 17 12 6 9 9 7 6 8 16 16 16 16 20 24
16 6 6 10 7 3 9 9 9 10 8 14 11 12 8 7 6 4 18 31 48 63 65 56 51 50 45 39 32 23 17 17 11 8 8 8 10 11 16 19 17 20 22 24
36 12 20 32 13 12 9 9 12 14 9 11 12 9 10 6 7 4 10 24 40 63 70 62 56 55 51 42 37 28 19 24 18 12 7 5 9 16 18 25 20 20 21 21
13 16 12 9 19 21 27 17 24 19 18 17 16 18 15 9 9 7 17 26 41 56 70 72 63 59 57 48 41 32 23 23 23 18 11 4 7 19 24 24 23 22 20 18
4 7 16 14 19 25 23 35 32 35 6 2 11 10 14 14 16 12 15 38 50 58 75 80 71 59 60 58 47 38 31 26 26 22 16 11 9 17 27 27 26 22 23 20
2 7 7 9 11 13 34 32 28 20 10 19 17 19 14 11 16 28 30 36 49 58 64 85 82 70 62 62 53 46 36 29 27 24 23 18 13 18 24 29 28 25 23 22
3 7 4 6 11 18 10 21 33 39 24 15 7 16 21 26 40 32 21 19 41 54 54 75 87 75 65 59 56 47 41 34 29 26 27 24 18 21 24 27 29 29 27 24
16 9 5 10 8 9 3 10 18 18 25 29 26 10 18 20 12 30 25 29 37 51 49 56 81 84 71 64 60 56 51 42 34 31 30 27 22 23 24 26 27 28 29 27
11 9 10 6 13 21 11 12 12 11 16 20 34 19 18 27 7 19 41 38 44 42 55 43 61 83 79 69 66 63 59 54 46 38 32 29 26 25 25 25 25 25 25 24
9 5 25 4 9 12 10 17 33 17 15 24 55 50 37 15 44 52 41 40 32 37 50 52 49 62 77 78 74 73 66 65 55 44 36 34 33 30 27 27 28 27 26 26
16 15 11 4 7 17 14 14 24 15 20 25 54 54 63 72 60 55 43 32 26 27 38 49 44 53 65 80 81 82 77 62 62 55 47 42 38 35 35 36 34 32 31 29
19 13 15 19 12 7 54 39 60 42 34 31 50 54 61 59 60 46 47 45 34 31 33 35 39 45 58 66 86 90 78 69 66 65 59 53 46 44 42 44 43 41 39 37
6 6 9 8 11 12 50 30 49 34 34 35 26 29 40 46 48 49 49 39 35 30 24 32 47 52 60 62 75 93 81 77 69 72 69 63 59 55 51 50 51 50 49 47
13 15 13 5 4 3 23 62 46 55 31 30 31 24 31 39 41 39 34 36 37 32 29 35 41 46 54 60 68 83 93 85 84 73 75 73 70 65 60 58 57 60 56 52
8 11 16 16 22 22 30 66 65 51 64 46 28 29 41 37 30 27 31 36 33 24 25 33 47 51 51 58 72 79 85 93 93 88 81 83 80 78 74 68 64 61 57 52
Wind_Direction_850mb
167 142 203 202 199 183 195 196 247 266 242 178 235 252 273 220 213 207 206 201 203 206 203 200 201 8 28 21 15 10 20 23 18 16 25 45 36 18 343 14 27 349 223 188
83 219 188 197 164 173 160 222 264 274 278 163 271 271 263 189 224 214 211 204 205 198 196 201 200 217 27 28 27 11 20 18 23 25 36 44 25 34 29 52 67 55 90 146
185 182 163 169 196 174 198 174 233 239 319 239 151 307 301 268 242 221 226 215 210 204 200 199 200 206 76 39 40 25 32 19 27 32 45 53 36 52 62 72 76 69 96 94
208 191 172 168 196 166 254 217 229 267 47 271 133 271 286 284 278 228 215 210 208 201 202 202 197 201 166 62 48 45 37 22 40 40 50 71 50 59 76 89 79 80 78 82
213 155 176 173 211 163 232 143 196 228 205 109 270 72 262 352 284 259 218 210 206 201 198 199 195 191 148 109 56 86 35 33 59 56 55 59 66 61 66 84 80 75 75 87
202 206 166 197 213 175 166 107 49 55 97 60 235 160 278 221 217 260 193 206 206 196 195 197 183 186 161 160 93 133 34 27 57 61 55 55 55 60 74 81 104 109 105 94
168 186 191 151 152 89 96 71 338 338 6 223 108 101 235 255 244 231 230 199 201 192 192 191 187 190 184 171 174 154 9 15 49 65 67 61 60 59 72 73 80 146 112 136
180 227 170 178 170 183 181 155 158 230 231 260 139 231 250 229 306 295 273 218 194 187 192 194 190 190 189 175 169 211 224 34 49 67 68 59 70 66 66 63 77 100 128 123
174 227 138 166 156 148 177 153 197 138 154 62 243 287 311 268 7 22 132 172 185 186 191 194 190 193 193 186 166 213 231 310 189 61 32 42 78 91 77 76 68 86 123 125
194 182 207 199 100 19 166 160 112 18 194 228 278 286 240 300 304 174 162 178 186 187 191 195 192 194 196 194 192 225 237 274 215 221 79 46 99 132 106 94 96 95 93 101
134 135 269 110 178 169 124 162 58 124 148 187 235 257 218 224 251 233 196 198 192 188 192 195 191 193 199 201 204 225 235 251 213 218 214 116 119 142 140 122 116 110 114 114
185 152 193 199 198 172 208 189 171 163 229 208 185 261 242 262 272 215 200 212 201 198 192 194 192 190 198 202 197 209 219 226 198 189 193 204 178 150 164 145 134 117 115 110
170 199 149 328 5 329 168 178 148 120 95 189 186 261 177 256 270 218 204 203 203 199 198 195 194 195 199 200 198 196 212 206 201 185 175 188 193 174 168 164 148 146 134 144
160 158 189 221 209 158 183 179 183 156 141 185 217 211 260 185 58 293 175 212 207 202 201 196 197 202 203 203 203 199 203 205 205 205 204 194 193 185 175 180 171 159 158 147
142 205 182 198 202 191 212 196 180 191 195 175 215 208 229 180 179 209 185 186 192 201 208 202 200 206 205 204 204 203 198 204 212 211 217 222 208 190 184 181 182 173 160 155
7 222 175 217 207 195 215 217 194 208 152 107 155 231 207 178 174 226 187 188 199 203 210 211 206 205 206 207 205 203 200 200 211 212 211 217 216 189 186 185 185 182 181 174
335 136 103 227 182 127 245 208 193 204 190 171 198 214 155 179 195 222 235 217 220 214 210 216 209 208 207 204 203 204 199 199 208 205 208 217 212 190 184 191 195 195 195 193
216 108 104 158 112 208 278 203 187 199 204 194 179 178 181 204 225 242 231 270 236 225 214 218 219 213 212 208 204 204 201 202 202 203 206 213 211 194 188 188 191 197 203 205
180 138 168 152 211 299 234 153 145 159 227 198 205 154 191 205 230 254 235 268 278 246 230 226 222 218 212 207 202 202 202 203 202 203 203 210 216 203 195 190 191 193 197 200
141 198 170 175 178 219 191 199 150 76 246 196 197 192 165 143 188 234 228 253 278 248 237 225 224 223 215 212 205 202 203 203 203 201 201 203 210 211 200 189 183 179 178 176
145 135 209 174 228 275 248 149 137 154 233 185 192 203 174 185 220 233 247 262 270 256 241 230 224 223 220 210 207 205 204 206 206 196 199 203 205 206 199 190 184 177 175 176
162 151 190 123 190 245 170 133 161 197 217 215 204 206 202 217 228 230 238 242 254 244 224 224 223 224 220 212 209 209 207 207 207 202 200 204 204 202 199 195 188 186 188 187
193 184 186 189 203 227 172 174 198 186 195 196 207 208 215 220 224 223 240 237 246 214 209 218 230 222 218 211 211 211 211 207 206 206 203 207 205 204 201 201 197 197 197 196
238 157 152 130 207 202 192 200 204 192 192 213 219 210 211 224 232 233 239 236 219 216 197 222 218 219 219 216 212 217 213 207 207 207 205 207 212 209 207 207 206 206 206 207
202 152 174 228 314 91 219 202 203 208 201 192 189 207 232 226 227 231 238 227 229 239 231 223 225 226 225 225 219 214 217 211 209 210 209 207 211 214 213 214 215 215 217 219
213 176 184 221 175 168 203 203 207 210 215 211 219 215 215 219 230 238 245 243 243 240 251 248 234 227 225 227 223 217 218 215 213 211 212 212 210 213 218 217 220 224 229 233